DW8935 Weather Reports


time (UTC)temp
F
wind
direction
speed
knots
gust
knots
rain 1hr
in
rain 24hr
in
rain mn
in
humidity
%
barometer
mb
20260906024531 64 281 1.7 8.7 0.00 0.00 0.00 64 1021.1
20260906023018 63 238 2.6 9.6 0.00 0.00 0.00 68 1021.2
20260906021511 63 229 3.5 10.4 0.00 0.00 0.00 71 1021.4
20260906020008 62 247 1.7 7.0 0.00 0.00 0.00 74 1021.4
20260906014508 61 257 3.5 11.3 0.00 0.00 0.00 76 1021.5
20260906013008 60 176 4.3 9.6 0.00 0.00 0.00 78 1021.4
20260906011606 60 268 2.6 10.4 0.00 0.00 0.00 81 1021.5
20260906010058 59 277 2.6 9.6 0.00 0.00 0.00 84 1021.5
20260906004609 59 252 1.7 10.4 0.00 0.00 0.00 88 1021.5
20260906003110 58 290 3.5 7.8 0.00 0.00 0.00 93 1021.5
20260906001551 57 281 2.6 9.6 0.00 0.00 0.00 94 1021.4
20260906000048 56 254 1.7 7.0 0.00 0.00 0.00 94 1021.2
20260905234546 55 248 0.9 3.5 0.00 0.00 0.00 94 1021.2
20260905233048 55 252 0.9 5.2 0.00 0.00 0.00 94 1021.1
20260905231545 54 264 0.0 2.6 0.00 0.00 0.00 94 1021.0
20260905230042 54 265 0.9 4.3 0.00 0.00 0.00 94 1020.8
20260905224540 54 266 0.9 3.5 0.00 0.00 0.00 94 1020.5
20260905223040 54 291 0.9 3.5 0.00 0.00 0.00 94 1020.3
20260905221556 54 251 0.0 1.7 0.00 0.00 0.00 94 1020.0
20260905220036 53 290 0.0 3.5 0.00 0.00 0.00 94 1019.8
20260905214533 53 320 0.0 4.3 0.00 0.00 0.00 94 1019.6
20260905213040 53 292 0.0 3.5 0.00 0.00 0.00 94 1019.3
20260905211538 53 265 0.0 3.5 0.00 0.00 0.00 94 1019.0
20260905210036 53 279 0.0 2.6 0.00 0.00 0.00 94 1018.9
20260905204530 53 272 0.0 2.6 0.00 0.00 0.00 93 1018.5
20260905203025 53 292 0.0 2.6 0.00 0.00 0.00 93 1018.2
20260905201525 53 271 0.9 2.6 0.00 0.00 0.00 93 1018.1
20260905200022 53 263 0.0 3.5 0.00 0.00 0.00 93 1017.8
20260905194521 53 279 0.0 3.5 0.00 0.00 0.00 93 1017.8
20260905193020 53 271 0.9 5.2 0.00 0.00 0.00 93 1017.6
20260905191519 53 225 0.9 7.0 0.00 0.00 0.00 93 1017.6
20260905190017 53 232 0.9 5.2 0.00 0.00 0.00 92 1017.3
20260905184616 53 225 2.6 7.8 0.00 0.00 0.00 92 1017.0
20260905183014 54 284 2.6 8.7 0.00 0.00 0.00 92 1016.7
20260905181512 54 259 3.5 14.8 0.00 0.00 0.00 92 1016.5
20260905180014 53 267 3.5 8.7 0.00 0.00 0.00 92 1016.0
20260905174508 53 269 2.6 7.0 0.00 0.00 0.00 92 1015.6
20260905173007 53 264 1.7 6.1 0.00 0.00 0.00 92 1015.4
20260905171504 53 272 1.7 7.0 0.00 0.00 0.00 92 1015.1
20260905170002 53 253 1.7 7.8 0.00 0.00 0.00 92 1014.8
20260905164600 53 253 2.6 9.6 0.00 0.00 0.00 91 1014.6
20260905163059 54 281 1.7 11.3 0.00 0.00 0.00 91 1014.4
20260905161603 54 229 4.3 9.6 0.00 0.00 0.00 91 1014.3
20260905160055 54 271 3.5 8.7 0.00 0.00 0.00 91 1014.2
20260905154604 54 290 3.5 9.6 0.00 0.00 0.00 91 1013.9
20260905153052 54 256 2.6 7.0 0.00 0.00 0.00 91 1013.7
20260905151600 53 273 3.5 11.3 0.00 0.00 0.00 91 1013.3
20260905150047 54 278 3.5 12.2 0.00 0.00 0.00 91 1012.8
20260905144545 54 281 2.6 8.7 0.00 0.00 0.00 91 1012.6
20260905143043 54 282 4.3 13.0 0.00 0.00 0.00 90 1012.2
20260905141542 54 310 5.2 10.4 0.00 0.00 0.00 89 1012.1
20260905140038 54 271 5.2 13.9 0.00 0.00 0.00 88 1011.7
20260905134539 54 253 3.5 13.9 0.00 0.00 0.00 88 1011.4
20260905133035 54 287 6.1 12.2 0.00 0.00 0.00 86 1011.0
20260905131533 54 271 6.1 13.9 0.00 0.00 0.00 85 1010.8
20260905130034 54 231 5.2 14.8 0.00 0.00 0.00 82 1010.8
20260905124533 55 300 5.2 12.2 0.00 0.00 0.00 81 1010.4
20260905123032 55 248 7.8 14.8 0.00 0.00 0.00 79 1010.2
20260905121531 55 278 6.1 13.9 0.00 0.00 0.00 78 1010.0
20260905120031 55 276 7.8 14.8 0.00 0.00 0.00 77 1009.8
20260905114533 55 239 7.8 13.0 0.00 0.00 0.00 77 1009.8
20260905113033 55 279 6.1 14.8 0.00 0.00 0.00 76 1009.4
20260905111536 55 311 7.0 13.9 0.00 0.00 0.00 75 1009.2
20260905110031 55 238 6.1 13.9 0.00 0.00 0.00 75 1008.7
20260905104533 55 301 7.8 16.5 0.00 0.00 0.00 75 1008.7
20260905103033 55 251 7.8 15.6 0.00 0.00 0.00 75 1008.5
20260905101533 55 271 6.1 15.6 0.00 0.00 0.00 75 1008.1
20260905100035 55 288 7.0 15.6 0.00 0.00 0.00 76 1007.7
20260905094527 55 288 8.7 18.2 0.00 0.00 0.00 78 1007.6
20260905093028 54 313 4.3 12.2 0.00 0.00 0.00 81 1007.4
20260905091527 54 284 5.2 9.6 0.00 0.00 0.00 82 1006.9
20260905090027 54 267 5.2 10.4 0.00 0.00 0.00 84 1006.6
20260905084526 54 292 4.3 9.6 0.00 0.00 0.00 85 1006.0
20260905083028 54 305 5.2 10.4 0.00 0.00 0.00 84 1005.9
20260905081526 54 263 7.0 11.3 0.00 0.00 0.00 84 1005.7
20260905080032 54 300 7.0 17.4 0.00 0.00 0.00 83 1005.5
20260905074525 54 239 6.1 13.9 0.00 0.00 0.00 85 1005.1
20260905073032 54 244 6.1 12.2 0.00 0.00 0.00 85 1005.0
20260905071522 54 271 8.7 16.5 0.00 0.00 0.00 83 1005.2
20260905070029 56 266 7.8 17.4 0.00 0.00 0.00 79 1004.8
20260905064517 58 229 1.7 9.6 0.00 0.00 0.00 76 1003.8
20260905063017 58 263 4.3 12.2 0.00 0.00 0.00 77 1003.7
20260905061518 58 252 4.3 13.0 0.00 0.00 0.00 79 1003.7
20260905060017 59 236 6.1 22.6 0.00 0.00 0.00 72 1003.9
20260905054533 64 255 4.3 12.2 0.00 0.00 0.00 55 1003.3
20260905053016 65 229 7.8 13.9 0.00 0.00 0.00 53 1003.1
20260905051533 66 264 8.7 15.6 0.00 0.00 0.00 51 1003.3
20260905050014 66 237 8.7 16.5 0.00 0.00 0.00 50 1003.2
20260905044519 66 274 8.7 23.5 0.00 0.00 0.00 49 1003.2
20260905043011 67 225 7.8 20.0 0.00 0.00 0.00 50 1002.8
20260905041510 66 263 12.2 20.9 0.00 0.00 0.00 53 1002.7
20260905040008 66 265 9.6 16.5 0.00 0.00 0.00 57 1002.8
20260905034508 65 244 9.6 19.1 0.00 0.00 0.00 58 1002.9
20260905033016 64 259 8.7 21.7 0.00 0.00 0.00 59 1003.0
20260905031511 63 294 10.4 18.2 0.00 0.00 0.00 62 1003.2
20260905030006 60 267 8.7 18.2 0.00 0.00 0.00 65 1003.4